CW1084 Weather Reports


Display with metric or nautical units.
time (UTC)temp
F
wind
direction
speed
MPH
gust
MPH
rain 1hr
in
rain 24hr
in
rain mn
in
humidity
%
barometer
mb
20260831234727 87 130 0.0 0.0 0.00 0.00 0.00 100 1016.4
20260831234226 87 130 0.0 0.0 0.00 0.00 0.00 100 1016.4
20260831233709 87 130 0.0 0.0 0.00 0.00 0.00 100 1016.4
20260831233210 87 130 0.0 0.0 0.00 0.00 0.00 100 1016.4
20260831232922 88 130 0.0 0.0 0.00 0.00 0.00 100 1016.5
20260831232144 88 130 0.0 0.0 0.00 0.00 0.00 100 1016.5
20260831231645 88 130 0.0 0.0 0.00 0.00 0.00 100 1016.4
20260831231130 88 130 0.0 0.0 0.00 0.00 0.00 100 1016.4
20260831230907 88 130 0.0 0.0 0.00 0.00 0.00 100 1016.5
20260831230123 88 130 0.0 0.0 0.00 0.00 0.00 100 1016.5
20260831225617 88 130 0.0 0.0 0.00 0.00 0.00 100 1016.4
20260831225113 88 130 0.0 0.0 0.00 0.00 0.00 100 1016.4
20260831224611 87 130 0.0 0.0 0.00 0.00 0.00 100 1016.4
20260831224333 87 130 0.0 0.0 0.00 0.00 0.00 100 1016.5
20260831223551 87 130 0.0 0.0 0.00 0.00 0.00 100 1016.6
20260831223011 87 130 0.0 0.0 0.00 0.00 0.00 100 1016.6
20260831222725 87 130 0.0 0.0 0.00 0.00 0.00 100 1016.6
20260831222001 87 130 0.0 0.0 0.00 0.00 0.00 100 1016.6
20260831221457 87 130 0.0 0.0 0.00 0.00 0.00 100 1016.6
20260831220958 87 130 0.0 0.0 0.00 0.00 0.00 100 1016.6
20260831220456 87 130 0.0 0.0 0.00 0.00 0.00 100 1016.9
20260831215940 87 130 0.0 0.0 0.00 0.00 0.00 100 1016.9
20260831215441 87 130 0.0 0.0 0.00 0.00 0.00 100 1016.9
20260831214914 87 130 0.0 0.0 0.00 0.00 0.00 100 1016.7
20260831214410 86 130 0.0 0.0 0.00 0.00 0.00 100 1016.7
20260831214121 86 130 0.0 1.0 0.00 0.00 0.00 100 1016.7
20260831213623 86 130 0.0 1.0 0.00 0.00 0.00 100 1016.7
20260831212853 86 130 0.0 0.0 0.00 0.00 0.00 100 1016.9
20260831212342 86 130 0.0 0.0 0.00 0.00 0.00 100 1016.9
20260831211838 87 130 0.0 1.0 0.00 0.00 0.00 100 1016.7
20260831211327 87 130 0.0 1.0 0.00 0.00 0.00 100 1016.6
20260831211039 87 130 0.0 0.0 0.00 0.00 0.00 100 1016.5
20260831210323 88 130 0.0 1.0 0.00 0.00 0.00 100 1016.5
20260831205759 88 130 0.0 2.0 0.00 0.00 0.00 100 1016.4
20260831205247 89 130 0.0 2.0 0.00 0.00 0.00 100 1016.4
20260831204743 89 130 0.0 5.0 0.00 0.00 0.00 100 1016.3
20260831204226 89 130 0.0 5.0 0.00 0.00 0.00 100 1016.1
20260831203726 89 130 0.0 4.0 0.00 0.00 0.00 100 1016.1
20260831203209 89 130 0.0 4.0 0.00 0.00 0.00 100 1016.1
20260831202711 89 130 0.0 3.0 0.00 0.00 0.00 100 1016.2
20260831202216 90 139 0.0 6.0 0.00 0.00 0.00 100 1016.2
20260831201709 90 139 0.0 6.0 0.00 0.00 0.00 100 1016.3
20260831201202 89 150 0.0 4.0 0.00 0.00 0.00 100 1016.4
20260831200701 89 153 1.0 7.0 0.00 0.00 0.00 100 1016.5
20260831200200 89 156 1.0 7.0 0.00 0.00 0.00 100 1016.6
20260831195649 89 107 0.0 5.0 0.00 0.00 0.00 100 1016.5
20260831195152 89 126 0.0 5.0 0.00 0.00 0.00 100 1016.5
20260831195132 88 126 0.0 4.0 0.00 0.00 0.00 100 1016.5
20260831194147 88 128 0.0 3.0 0.00 0.00 0.00 100 1016.5
20260831193646 88 128 0.0 4.0 0.00 0.00 0.00 100 1016.7
20260831193145 88 130 0.0 4.0 0.00 0.00 0.00 100 1016.9
20260831192631 88 130 0.0 4.0 0.00 0.00 0.00 100 1017.0
20260831192133 88 130 0.0 4.0 0.00 0.00 0.00 100 1017.1
20260831191625 87 130 0.0 4.0 0.00 0.00 0.00 100 1017.1
20260831191123 87 130 0.0 4.0 0.00 0.00 0.00 100 1017.1
20260831190619 87 130 0.0 3.0 0.00 0.00 0.00 100 1017.0
20260831190106 0 0.0 0.0 0.00 0.00 0.00 1016.9
20260831185601 0 0.0 0.0 0.00 0.00 0.00 1017.0
20260831185024 0 0.0 0.0 0.00 0.00 0.00 1017.2
20260831184510 0 0.0 0.0 0.00 0.00 0.00 1017.2
20260831184002 0 0.0 0.0 0.00 0.00 0.00 1017.3
20260831183420 0 0.0 0.0 0.00 0.00 0.00 1017.4
20260831183140 0 0.0 0.0 0.00 0.00 0.00 1017.2
20260831182401 0 0.0 0.0 0.00 0.00 0.00 1017.2
20260831181902 0 0.0 0.0 0.00 0.00 0.00 1017.2
20260831181605 0 0.0 0.0 0.00 0.00 0.00 1017.4
20260831180826 0 0.0 0.0 0.00 0.00 0.00 1017.4
20260831180317 0 0.0 0.0 0.00 0.00 0.00 1017.4
20260831180035 0 0.0 0.0 0.00 0.00 0.00 1017.3
20260831175748 0 0.0 0.0 0.00 0.00 0.00 1017.3
20260831174717 0 0.0 0.0 0.00 0.00 0.00 1017.3
20260831174131 0 0.0 0.0 0.00 0.00 0.00 1017.3
20260831173611 0 0.0 0.0 0.00 0.00 0.00 1017.2
20260831173055 0 0.0 0.0 0.00 0.00 0.00 1017.3
20260831172516 0 0.0 0.0 0.00 0.00 0.00 1017.4
20260831171708 0 0.0 0.0 0.00 0.00 0.00 1017.5
20260831170900 0 0.0 0.0 0.00 0.00 0.00 1017.6
20260831170545 0 0.0 0.0 0.00 0.00 0.00 1017.5
20260831165741 0 0.0 0.0 0.00 0.00 0.00 1017.6
20260831165217 0 0.0 0.0 0.00 0.00 0.00 1017.6
20260831164720 0 0.0 0.0 0.00 0.00 0.00 1017.6
20260831164208 0 0.0 0.0 0.00 0.00 0.00 1017.7
20260831163658 0 0.0 0.0 0.00 0.00 0.00 1017.8
20260831163135 0 0.0 0.0 0.00 0.00 0.00 1017.9
20260831162628 0 0.0 0.0 0.00 0.00 0.00 1017.8
20260831162123 0 0.0 0.0 0.00 0.00 0.00 1017.8
20260831161602 0 0.0 0.0 0.00 0.00 0.00 1017.8
20260831161106 0 0.0 0.0 0.00 0.00 0.00 1017.8
20260831160540 0 0.0 0.0 0.00 0.00 0.00 1017.8
20260831160032 0 0.0 0.0 0.00 0.00 0.00 1017.8
20260831155508 0 0.0 0.0 0.00 0.00 0.00 1017.7
20260831155002 0 0.0 0.0 0.00 0.00 0.00 1017.7
20260831154638 0 0.0 0.0 0.00 0.00 0.00 1017.7
20260831153906 0 0.0 0.0 0.00 0.00 0.00 1017.6
20260831153607 0 0.0 0.0 0.00 0.00 0.00 1017.6
20260831152832 0 0.0 0.0 0.00 0.00 0.00 1017.6
20260831152309 0 0.0 0.0 0.00 0.00 0.00 1017.6
20260831151810 0 0.0 0.0 0.00 0.00 0.00 1017.6
20260831151310 0 0.0 0.0 0.00 0.00 0.00 1017.7
20260831150758 0 0.0 0.0 0.00 0.00 0.00 1017.7
20260831150251 0 0.0 0.0 0.00 0.00 0.00 1017.7
20260831145706 0 0.0 0.0 0.00 0.00 0.00 1017.8
20260831145206 0 0.0 0.0 0.00 0.00 0.00 1017.7
20260831144641 0 0.0 0.0 0.00 0.00 0.00 1017.8
20260831144138 0 0.0 0.0 0.00 0.00 0.00 1017.8
20260831143613 0 0.0 0.0 0.00 0.00 0.00 1017.9
20260831143108 0 0.0 0.0 0.00 0.00 0.00 1017.8
20260831142535 0 0.0 0.0 0.00 0.00 0.00 1017.8
20260831141959 0 0.0 0.0 0.00 0.00 0.00 1017.8
20260831141407 0 0.0 0.0 0.00 0.00 0.00 1017.8
20260831140851 0 0.0 0.0 0.00 0.00 0.00 1017.7
20260831140304 0 0.0 0.0 0.00 0.00 0.00 1017.7
20260831135732 0 0.0 0.0 0.00 0.00 0.00 1017.7
20260831135206 0 0.0 0.0 0.00 0.00 0.00 1017.7
20260831134656 0 0.0 0.0 0.00 0.00 0.00 1017.7
20260831134115 0 0.0 0.0 0.00 0.00 0.00 1017.7
20260831133529 0 0.0 0.0 0.00 0.00 0.00 1017.7
20260831133501 0 0.0 0.0 0.00 0.00 0.00 1017.7
20260831132726 0 0.0 0.0 0.00 0.00 0.00 1017.8
20260831131911 0 0.0 0.0 0.00 0.00 0.00 1017.9
20260831131402 0 0.0 0.0 0.00 0.00 0.00 1017.9
20260831130849 0 0.0 0.0 0.00 0.00 0.00 1017.9
20260831130345 0 0.0 0.0 0.00 0.00 0.00 1017.9
20260831125834 0 0.0 0.0 0.00 0.00 0.00 1017.8
20260831125317 0 0.0 0.0 0.00 0.00 0.00 1017.7
20260831124807 0 0.0 0.0 0.00 0.00 0.00 1017.7
20260831124237 0 0.0 0.0 0.00 0.00 0.00 1017.7
20260831123707 0 0.0 0.0 0.00 0.00 0.00 1017.7
20260831123424 0 0.0 0.0 0.00 0.00 0.00 1017.6
20260831122619 0 0.0 0.0 0.00 0.00 0.00 1017.6
20260831122328 0 0.0 0.0 0.00 0.00 0.00 1017.5
20260831121809 0 0.0 0.0 0.00 0.00 0.00 1017.5
20260831121246 0 0.0 0.0 0.00 0.00 0.00 1017.4
20260831120511 0 0.0 0.0 0.00 0.00 0.00 1017.4
20260831115956 0 0.0 0.0 0.00 0.00 0.00 1017.5
20260831115450 0 0.0 0.0 0.00 0.00 0.00 1017.6
20260831115215 0 0.0 0.0 0.00 0.00 0.00 1017.6
20260831114421 0 0.0 0.0 0.00 0.00 0.00 1017.5
20260831113914 0 0.0 0.0 0.00 0.00 0.00 1017.5
20260831113408 0 0.0 0.0 0.00 0.00 0.00 1017.5
20260831113125 0 0.0 0.0 0.00 0.00 0.00 1017.5
20260831112405 0 0.0 0.0 0.00 0.00 0.00 1017.4
20260831111904 0 0.0 0.0 0.00 0.00 0.00 1017.3
20260831111321 0 0.0 0.0 0.00 0.00 0.00 1017.2
20260831110737 76 213 0.0 0.0 0.00 0.00 0.00 100 1017.1
20260831110231 76 213 0.0 0.0 0.00 0.00 0.00 100 1017.0
20260831105727 76 213 0.0 0.0 0.00 0.00 0.00 100 1016.7
20260831105211 76 213 0.0 0.0 0.00 0.00 0.00 100 1016.7
20260831104953 76 213 0.0 0.0 0.00 0.00 0.00 100 1016.6
20260831104211 76 213 0.0 0.0 0.00 0.00 0.00 100 1016.6
20260831103702 76 213 0.0 0.0 0.00 0.00 0.00 100 1016.6
20260831103159 76 213 0.0 0.0 0.00 0.00 0.00 100 1016.6
20260831102654 77 213 0.0 0.0 0.00 0.00 0.00 100 1016.7
20260831102144 77 213 0.0 0.0 0.00 0.00 0.00 100 1016.7
20260831101639 77 213 0.0 0.0 0.00 0.00 0.00 100 1017.0
20260831101138 77 213 0.0 0.0 0.00 0.00 0.00 100 1017.0
20260831100635 77 213 0.0 0.0 0.00 0.00 0.00 100 1017.0
20260831100134 77 213 0.0 0.0 0.00 0.00 0.00 100 1016.9
20260831095612 77 213 0.0 0.0 0.00 0.00 0.00 100 1016.7
20260831095109 77 213 0.0 0.0 0.00 0.00 0.00 100 1016.6
20260831094609 77 213 0.0 0.0 0.00 0.00 0.00 100 1016.5
20260831094110 77 213 0.0 0.0 0.00 0.00 0.00 100 1016.5
20260831093559 77 213 0.0 0.0 0.00 0.00 0.00 100 1016.5
20260831093323 77 213 0.0 0.0 0.00 0.00 0.00 100 1016.5
20260831092807 77 213 0.0 0.0 0.00 0.00 0.00 100 1016.5
20260831092029 78 213 0.0 0.0 0.00 0.00 0.00 100 1016.5
20260831091528 78 213 0.0 0.0 0.00 0.00 0.00 100 1016.7
20260831091248 78 213 0.0 0.0 0.00 0.00 0.00 100 1016.6
20260831090517 78 213 0.0 0.0 0.00 0.00 0.00 100 1016.7
20260831090011 78 213 0.0 0.0 0.00 0.00 0.00 100 1016.7
20260831085508 78 213 0.0 0.0 0.00 0.00 0.00 100 1016.7
20260831085007 78 213 0.0 0.0 0.00 0.00 0.00 100 1016.9
20260831084732 78 213 0.0 0.0 0.00 0.00 0.00 100 1016.7
20260831083936 78 213 0.0 0.0 0.00 0.00 0.00 100 1016.7
20260831083713 78 213 0.0 0.0 0.00 0.00 0.00 100 1016.7
20260831083143 78 213 0.0 0.0 0.00 0.00 0.00 100 1016.6
20260831082641 78 213 0.0 0.0 0.00 0.00 0.00 100 1016.5
20260831081858 78 213 0.0 0.0 0.00 0.00 0.00 100 1016.5
20260831081350 78 213 0.0 0.0 0.00 0.00 0.00 100 1016.5
20260831080844 78 213 0.0 0.0 0.00 0.00 0.00 100 1016.5
20260831080610 78 213 0.0 0.0 0.00 0.00 0.00 100 1016.6
20260831080051 78 213 0.0 0.0 0.00 0.00 0.00 100 1016.6
20260831075321 79 213 0.0 0.0 0.00 0.00 0.00 100 1016.6
20260831074811 79 213 0.0 0.0 0.00 0.00 0.00 100 1016.7
20260831074303 79 213 0.0 0.0 0.00 0.00 0.00 100 1016.6
20260831073742 79 213 0.0 0.0 0.00 0.00 0.00 100 1016.7
20260831073230 79 213 0.0 0.0 0.00 0.00 0.00 100 1017.0
20260831072943 79 213 0.0 0.0 0.00 0.00 0.00 100 1017.0
20260831072158 79 213 0.0 0.0 0.00 0.00 0.00 100 1017.1
20260831071651 79 213 0.0 0.0 0.00 0.00 0.00 100 1017.0
20260831071115 79 213 0.0 0.0 0.00 0.00 0.00 100 1017.0
20260831070549 79 213 0.0 0.0 0.00 0.00 0.00 100 1017.0
20260831070221 79 213 0.0 0.0 0.00 0.00 0.00 100 1016.9
20260831065414 79 213 0.0 0.0 0.00 0.00 0.00 100 1016.9
20260831064833 80 213 0.0 0.0 0.00 0.00 0.00 100 1017.0
20260831064312 80 213 0.0 0.0 0.00 0.00 0.00 100 1016.9
20260831063810 80 213 0.0 0.0 0.00 0.00 0.00 100 1016.9
20260831063257 80 213 0.0 0.0 0.00 0.00 0.00 100 1016.9
20260831062751 80 213 0.0 0.0 0.00 0.00 0.00 100 1016.7
20260831062235 80 213 0.0 0.0 0.00 0.00 0.00 100 1016.6
20260831061722 80 213 0.0 0.0 0.00 0.00 0.00 100 1016.5
20260831061424 80 213 0.0 0.0 0.00 0.00 0.00 100 1016.5
20260831060705 80 213 0.0 0.0 0.00 0.00 0.00 100 1016.5
20260831060206 80 213 0.0 0.0 0.00 0.00 0.00 100 1016.6
20260831055654 80 213 0.0 1.0 0.00 0.00 0.00 100 1016.6
20260831055643 80 213 0.0 2.0 0.00 0.00 0.00 100 1016.7
20260831054919 81 213 0.0 0.0 0.00 0.00 0.00 100 1016.7
20260831054148 81 213 0.0 0.0 0.00 0.00 0.00 100 1016.9
20260831053629 81 213 0.0 0.0 0.00 0.00 0.00 100 1016.9
20260831053123 81 213 0.0 0.0 0.00 0.00 0.00 100 1016.9
20260831052609 81 213 0.0 0.0 0.00 0.00 0.00 100 1016.9
20260831052330 81 213 0.0 0.0 0.00 0.00 0.00 100 1017.0
20260831051557 81 213 0.0 2.0 0.00 0.00 0.00 100 1017.0
20260831051052 81 213 0.0 5.0 0.00 0.00 0.00 100 1017.0
20260831050544 81 213 0.0 5.0 0.00 0.00 0.00 100 1017.0
20260831050029 82 157 0.0 0.0 0.00 0.00 0.00 100 1017.0
20260831045527 82 157 0.0 3.0 0.00 0.00 0.00 100 1017.0
20260831045011 82 157 0.0 3.0 0.00 0.00 0.00 100 1017.0
20260831044515 82 156 0.0 1.0 0.00 0.00 0.00 100 1017.0
20260831044453 82 156 0.0 1.0 0.00 0.00 0.00 100 1016.9
20260831043457 82 156 0.0 1.0 0.00 0.00 0.00 100 1016.9
20260831042944 83 156 0.0 1.0 0.00 0.00 0.00 100 1017.0
20260831042710 83 156 0.0 0.0 0.00 0.00 0.00 100 1017.1
20260831041932 83 156 0.0 0.0 0.00 0.00 0.00 100 1017.0
20260831041643 83 156 0.0 0.0 0.00 0.00 0.00 100 1017.1
20260831040925 83 156 0.0 0.0 0.00 0.00 0.00 100 1017.2
20260831040640 83 156 0.0 0.0 0.00 0.00 0.00 100 1017.2
20260831040147 83 156 0.0 0.0 0.00 0.00 0.00 100 1017.2
20260831035408 83 156 0.0 4.0 0.00 0.00 0.00 100 1017.3
20260831034912 83 156 0.0 4.0 0.00 0.00 0.00 100 1017.3
20260831034633 83 156 0.0 0.0 0.00 0.00 0.00 100 1017.4
20260831034134 84 156 0.0 0.0 0.00 0.00 0.00 100 1017.5
20260831033352 84 156 0.0 0.0 0.00 0.00 0.00 100 1017.6
20260831032838 84 156 0.0 0.0 0.00 0.00 0.00 100 1017.6
20260831032331 84 156 0.0 0.0 0.00 0.00 0.00 100 1017.7
20260831031821 84 156 0.0 0.0 0.00 0.00 0.00 100 1017.8
20260831031543 84 156 0.0 0.0 0.00 0.00 0.00 100 1017.8
20260831031039 84 156 0.0 0.0 0.00 0.00 0.00 100 1017.7
20260831030312 84 156 0.0 0.0 0.00 0.00 0.00 100 1017.9
20260831030252 84 156 0.0 0.0 0.00 0.00 0.00 100 1017.8
20260831025259 84 156 0.0 0.0 0.00 0.00 0.00 100 1017.8
20260831024802 84 156 0.0 0.0 0.00 0.00 0.00 100 1017.9
20260831024535 84 156 0.0 0.0 0.00 0.00 0.00 100 1017.9
20260831023742 85 156 0.0 0.0 0.00 0.00 0.00 100 1017.9
20260831023242 85 156 0.0 0.0 0.00 0.00 0.00 100 1017.9
20260831022737 85 156 0.0 0.0 0.00 0.00 0.00 100 1018.0
20260831022242 85 156 0.0 0.0 0.00 0.00 0.00 100 1017.9
20260831021721 85 156 0.0 0.0 0.00 0.00 0.00 100 1017.9
20260831021213 85 156 0.0 0.0 0.00 0.00 0.00 100 1017.9
20260831020713 85 156 0.0 0.0 0.00 0.00 0.00 100 1018.0
20260831020158 85 156 0.0 4.0 0.00 0.00 0.00 100 1018.0
20260831015637 85 156 0.0 4.0 0.00 0.00 0.00 100 1017.9
20260831015355 85 156 0.0 3.0 0.00 0.00 0.00 100 1017.9
20260831014619 85 156 0.0 5.0 0.00 0.00 0.00 100 1017.9
20260831014339 85 156 0.0 1.0 0.00 0.00 0.00 100 1017.8
20260831013553 85 156 0.0 0.0 0.00 0.00 0.00 100 1017.9
20260831013234 85 156 0.0 0.0 0.00 0.00 0.00 100 1018.0
20260831012507 85 156 0.0 2.0 0.00 0.00 0.00 100 1018.0
20260831012008 85 156 0.0 4.0 0.00 0.00 0.00 100 1018.0
20260831011502 85 156 0.0 4.0 0.00 0.00 0.00 100 1017.9
20260831011003 85 156 0.0 3.0 0.00 0.00 0.00 100 1017.9
20260831010726 85 156 0.0 1.0 0.00 0.00 0.00 100 1017.8
20260831010008 85 156 0.0 1.0 0.00 0.00 0.00 100 1017.8
20260831005457 85 156 0.0 0.0 0.00 0.00 0.00 100 1017.8
20260831004953 85 156 0.0 0.0 0.00 0.00 0.00 100 1017.8
20260831004454 85 156 0.0 0.0 0.00 0.00 0.00 100 1017.8
20260831004151 85 156 0.0 0.0 0.00 0.00 0.00 100 1017.8
20260831003409 85 156 0.0 1.0 0.00 0.00 0.00 100 1017.7
20260831002909 85 156 0.0 1.0 0.00 0.00 0.00 100 1017.8
20260831002407 85 156 0.0 0.0 0.00 0.00 0.00 100 1017.7
20260831001845 85 156 0.0 0.0 0.00 0.00 0.00 100 1017.8
20260831001542 86 156 0.0 0.0 0.00 0.00 0.00 100 1017.8
20260831001035 86 156 0.0 0.0 0.00 0.00 0.00 100 1017.7
20260830235755 85 156 0.0 0.0 0.00 0.00 0.00 100 1017.6
20260830235243 85 156 0.0 0.0 0.00 0.00 0.00 100 1017.5
20260830235009 85 156 0.0 0.0 0.00 0.00 0.00 100 1017.5